Flag for Germany Weather past 2 weeks in Beckum, North Rhine-Westphalia, Germany

Now
55 °F

Clear.


Feels Like: 53 °F
Forecast: 43 / 58 °F
Wind: 10 mph from Southwest

Location: Dortmund / Wickede

Current Time: Oct 20, 2014 at 9:17:08 PM

Latest Report: Oct 20, 2014 at 8:20 PM


Visibility: 10 mi

Pressure: 29.95 "Hg

Humidity: 77%

Dew point: 48 °F

Location of BeckumLocation

Historic Weather in Beckum — Graph

°F

Beckum temperature yesterday

Maximum temperature yesterday: 73 °F (at 2:20 PM)
Minimum temperature yesterday: 59 °F (at 6:50 AM)
Average temperature yesterday: 66 °F

Past Weeks' High & Low Weather Summary

 TemperatureHumidityPressure
High73 °F (Oct 19, 2:20 PM)100% (Oct 6, 6:20 AM)30.12 "Hg (Oct 6, 6:20 AM)
Low45 °F (Oct 6, 5:50 AM)49% (Oct 10, 2:50 PM)29.53 "Hg (Oct 7, 9:20 AM)
Average58 °F75%29.83 "Hg
* Reported Oct 5 7:20 PM — Oct 20 7:50 PM, Beckum, Weather by CustomWeather, © 2014

Note: Actual official high and low records may vary slightly from our data, if they occured in-between our weather recording intervals... More about our weather records

Advertising

Beckum weather history for previous 24 hours

 ConditionsComfort  
Time TempWeatherWind HumidityBarometerVisibility
7:50 PM
Oct 20
55 °FPassing clouds.10 mph77%29.98 "HgN/A
7:20 PM55 °FSunny.9 mph77%29.98 "Hg10 mi
6:50 PM55 °FSunny.9 mph77%29.98 "Hg10 mi
6:20 PM57 °FSunny.10 mph72%29.98 "Hg10 mi
5:50 PM57 °FSunny.15 mph72%29.98 "Hg10 mi
5:20 PM59 °FPassing clouds.17 mph68%29.98 "HgN/A
4:50 PM59 °FScattered clouds.17 mph68%29.98 "HgN/A
4:20 PM61 °FScattered clouds.17 mph63%29.98 "HgN/A
3:50 PM59 °FScattered clouds.15 mph68%30.01 "HgN/A
3:20 PM59 °FSunny.17 mph68%30.01 "Hg10 mi
2:50 PM59 °FScattered clouds.20 mph68%30.01 "HgN/A
2:20 PM61 °FPartly sunny.16 mph68%30.01 "HgN/A
1:50 PM61 °FScattered clouds.16 mph68%30.01 "HgN/A
1:20 PM59 °FScattered clouds.20 mph72%30.01 "HgN/A
12:50 PM59 °FScattered clouds.18 mph72%30.04 "HgN/A
12:20 PM59 °FScattered clouds.20 mph72%30.04 "HgN/A
11:50 AM59 °FPartly sunny.16 mph77%30.04 "HgN/A
11:20 AM57 °FPartly sunny.15 mph77%30.01 "HgN/A
10:50 AM57 °FPartly sunny.16 mph77%30.04 "HgN/A
10:20 AM57 °FPartly sunny.14 mph77%30.01 "HgN/A
9:50 AM57 °FPartly sunny.15 mph77%30.01 "HgN/A
9:20 AM57 °FPartly sunny.16 mph77%30.01 "HgN/A
8:50 AM55 °FPartly cloudy.15 mph82%30.01 "HgN/A
8:20 AM57 °FPassing clouds.15 mph77%30.01 "HgN/A
7:50 AM55 °FPassing clouds.16 mph82%30.01 "HgN/A
7:20 AM57 °FPassing clouds.17 mph77%30.01 "HgN/A
6:50 AM57 °FPassing clouds.17 mph77%30.01 "HgN/A
5:20 AM57 °FPassing clouds.16 mph77%30.01 "HgN/A
10:50 PM
Oct 19
61 °FClear.13 mph83%29.98 "Hg10 mi
10:20 PM63 °FClear.14 mph83%29.98 "Hg10 mi
9:50 PM63 °FClear.14 mph88%29.98 "Hg10 mi
9:20 PM63 °FPassing clouds.13 mph83%29.98 "HgN/A
Weather by CustomWeather, © 2014

See weather overviewHow to use our weather pages